sat.trackr.live / text

‹ back to catalog

CURIUM ONE

NORAD 60242 · 2024-128H

PAYLOAD ACTIVE UNKNOWN

§ Identity

Operator
Country
GER
Launch date
2024-07-09
Launch site
FRGUI
Launch vehicle
Mass (kg)
RCS (m²)

External: N2YO · Heavens-Above · Gunter

§ Orbital elements

Epoch: 2026-09-22T13:51:10.473984Z

Period
95.13 min
Inclination
61.9772°
Eccentricity
0.0025550
Mean motion
15.13699403 rev/d
Perigee alt
507.3 km
Apogee alt
542.6 km
Semi-major
6,903.1 km
B*
2.8136e-4
RAAN
220.5034°
Arg perigee
150.0523°
Mean anomaly
210.2041°
Rev number
12,119

§ Raw data

CURIUM ONE1 60242U 24128H   26265.57720456  .00004904  00000+0  28136-3 0  99972 60242  61.9772 220.5034 0025550 150.0523 210.2041 15.13699403121192

JSON: /api/v1/satellites/60242 · /tle

For live sub-satellite position, see the globe view (requires WebGL).

§ Visibility from observer

Set your observer location to see the next 7 days of passes ≥ 10°. The values pass through the URL so the page stays shareable.

No JS? Fill the form by hand. The geolocation button needs JavaScript.

§ Radio — SatNOGS DB

ModeDescriptionDownlinkUplink
GMSK UHF 50k GMSK TLM 436.240 MHz

1 transmitter · refreshed weekly from db.satnogs.org